This is the latest recevied weather packets stored in our database for station/object KA3BQE-13. If no packets are shown the sender has not sent any weather packets the latest 10 day(s).
| Time | Temp. | Humidity | Pressure | Rain* | Wind** | Luminosity | Snow |
|---|---|---|---|---|---|---|---|
| 1777592870 | 12.22° C | 83% | 1015.4 hPa | 0 mm | - | 9 W/m² | - |
| 1777592567 | 12.22° C | 75% | 1015.5 hPa | 0 mm | - | 10 W/m² | - |
| 1777592263 | 12.78° C | 70% | 1015.4 hPa | 0 mm | - | 11 W/m² | - |
| 1777591959 | 13.33° C | 73% | 1015.3 hPa | 0 mm | - | 11 W/m² | - |
| 1777591655 | 13.33° C | 64% | 1015.2 hPa | 0 mm | - | 12 W/m² | - |
| 1777591351 | 13.33° C | 57% | 1015.3 hPa | 0 mm | - | 14 W/m² | - |
| 1777591047 | 13.89° C | 56% | 1015.3 hPa | 0 mm | - | 12 W/m² | - |
| 1777590743 | 13.89° C | 57% | 1015.4 hPa | 0 mm | - | 13 W/m² | - |
| 1777590439 | 13.89° C | 55% | 1015.5 hPa | 0 mm | - | 13 W/m² | - |
| 1777590136 | 13.89° C | 56% | 1015.5 hPa | 0 mm | - | 24 W/m² | - |
| 1777589832 | 13.89° C | 56% | 1015.5 hPa | 0 mm | - | 25 W/m² | - |
| 1777589528 | 13.89° C | 54% | 1015.6 hPa | 0 mm | - | 38 W/m² | - |
| 1777589227 | 13.89° C | 53% | 1015.8 hPa | 0 mm | - | 39 W/m² | - |
| 1777588924 | 14.44° C | 52% | 1015.8 hPa | 0 mm | - | 44 W/m² | - |
| 1777588620 | 14.44° C | 51% | 1015.5 hPa | 0 mm | - | 52 W/m² | - |
| 1777588320 | 14.44° C | 53% | 1015.7 hPa | 0 mm | - | 31 W/m² | - |
| 1777588015 | 14.44° C | 53% | 1015.8 hPa | 0 mm | - | 40 W/m² | - |
| 1777587711 | 14.44° C | 53% | 1015.9 hPa | 0 mm | - | 44 W/m² | - |
| 1777587407 | 14.44° C | 51% | 1015.9 hPa | 0 mm | - | 105 W/m² | - |
| 1777587103 | 15° C | 50% | 1015.8 hPa | 0 mm | - | 84 W/m² | - |
| 1777586799 | 15° C | 50% | 1015.9 hPa | 0 mm | - | 112 W/m² | - |
| 1777586494 | 15° C | 50% | 1015.9 hPa | 0 mm | - | 211 W/m² | - |
| 1777586189 | 15° C | 52% | 1015.8 hPa | 0 mm | - | 238 W/m² | - |
| 1777585887 | 14.44° C | 51% | 1016 hPa | 0 mm | - | 166 W/m² | - |
| 1777585582 | 15° C | 51% | 1016 hPa | 0 mm | - | 115 W/m² | - |
* Rain latest hour (hover to see other rain measurements)
** Current wind speed in m/s (hover to see current wind gust speed)